Miscellaneous Local Product
Issued by NWS North Platte, NE

Home | Current Version | Previous Version | Text Only | Print | Product List | Glossary On
Versions: 1 2 3 4 5 6 7 8 9 10 11 12 13 14 15 16 17 18 19 20 21 22 23 24 25 26 27 28 29 30 31 32 33 34 35 36 37 38 39 40 41 42 43 44 45 46 47 48 49 50
000
AXUS43 KLBF 221810
MISLBF


WESTERN AND NORTH CENTRAL NEBRASKA HOURLY WEATHER ROUNDUP
NATIONAL WEATHER SERVICE NORTH PLATTE NE
100 PM CDT FRI AUG 22 2014

***STATIONS NOT REPORTING VARIABLES SUCH AS SKY/WEATHER OR
PRESSURE ARE PROVIDED BY THE NEBRASKA DEPARTMENT OF
ROADS...RAWS...AND APRS NETWORKS...AND ARE NOT UNDER
NATIONAL WEATHER SERVICE QUALITY CONTROL***

...OBSERVATIONS IN AND NEAR THE EASTERN PANHANDLE OF NEBRASKA...

CITY           SKY/WX    TMP DP  RH WIND       PRES   REMARKS
PINE RIDGE     PTSUNNY   69  60  73 W5        30.07F
CHADRON        PTSUNNY   70  59  68 E6        30.06F
ALLIANCE       CLOUDY    73  55  53 N3        30.09F
SIDNEY         LGT RAIN  64  61  90 CALM      30.13F
WHITECLAY        N/A     68  59  73 CALM        N/A
RUSHVILLE        N/A     71  59  64 W7          N/A
GORDON           N/A     75  63  64 NW9         N/A
CRESCENT LAKE    N/A     70  55  58 CALM        N/A
LISCO            N/A     73  61  66 E7          N/A
BIG SPRINGS      N/A     65  62  91 CALM        N/A
$$

...OBSERVATIONS IN NORTH CENTRAL NEBRASKA...

CITY           SKY/WX    TMP DP  RH WIND       PRES   REMARKS
VALENTINE      CLOUDY    76  60  57 NW9       30.02F
THEDFORD       CLOUDY    71  64  76 CALM      30.07R
AINSWORTH      LGT RAIN  75  69  83 CALM      30.03F
O`NEILL        PTSUNNY   81  71  71 E10       30.00F
ORD            PTSUNNY   86  70  58 NE7       29.97F HX  90
BROKEN BOW     CLOUDY    84  70  62 E10       30.00F
BROWNLEE         N/A     76  63  63 S3          N/A
SPRINGVIEW       N/A     78  70  76 CALM        N/A
ROSE             N/A     88  72  59 CALM        N/A  HX  94
NEWPORT          N/A     82  72  72 E3          N/A
SARGENT          N/A     84  71  65 E3          N/A
COMSTOCK         N/A     91  75  60 NE6         N/A  HX 101
CHAMBERS         N/A     89  69  51 S8          N/A  HX  93
EWING            N/A     83  72  68 CALM        N/A
$$

...OBSERVATIONS IN SOUTHWEST NEBRASKA AND FAR NORTHEAST COLORADO...

CITY           SKY/WX    TMP DP  RH WIND       PRES   REMARKS
WRAY             N/A     81  55  41 N14G21    30.07S
IMPERIAL       CLOUDY    78  59  51 N13       30.06F
OGALLALA       CLOUDY    70  62  75 NW12      30.06F
NORTH PLATTE   LGT RAIN  74  62  66 N6        30.05R
MCCOOK         PTSUNNY   89  61  38 N15       30.00S
LEXINGTON      PTSUNNY   85  73  68 NE8       29.99F HX  91
PAXTON           N/A     69  63  82 CALM        N/A
SUTHERLAND       N/A     78  67  68 NW6         N/A
BRADY            N/A     80  61  52 N3          N/A
GOTHENBURG       N/A     84  68  58 NE5         N/A
$$

...SOME WEATHER OBSERVATIONS FROM AROUND THE REGION...

CITY           SKY/WX    TMP DP  RH WIND       PRES   REMARKS
DENVER         CLOUDY    70  54  56 S6        30.16F
LARAMIE        PTSUNNY   68  42  38 SE12G22   30.20F
CHEYENNE       CLOUDY    70  48  45 S7        30.19S
SCOTTSBLUFF    CLOUDY    74  53  48 SE5       30.09F
RAPID CITY     CLOUDY    71  62  73 VRB5      30.07F
PIERRE         CLOUDY    76  67  73 E12       29.98F
WINNER         PTSUNNY   80  70  71 E12       30.00S
SIOUX FALLS    PTSUNNY   85  70  60 E8        29.98S
OMAHA          MOSUNNY   89  74  60 VRB3      29.92S HX  98
GRAND ISLAND   MOSUNNY   85  72  65 NE8       29.97S HX  91
KANSAS CITY    CLOUDY    87  74  64 S10       29.94F HX  95
WICHITA        MOSUNNY   97  66  36 S14G23    29.91F HX 100
HAYS           SUNNY     90  70  51 NE8       29.93F HX  95
LIBERAL        SUNNY     99  57  25 S15G22    29.97F HX  97
GOODLAND       MOSUNNY   84  58  40 NE21G30   30.05F
$$



USA.gov is the U.S. government's official web portal to all federal, state and local government web resources and services.